Wind_Speed
3 3 4 4 4 4 4 5 6 6 7 8 9 9 9 8 7 7 6 6 5 4 3 2 2 2 1 1 1 0 0 0 1 1 1 1 1 1 0 0 1 1 1
4 4 4 4 4 4 4 6 6 7 7 8 8 8 8 7 7 7 6 6 5 3 2 2 1 2 2 1 1 0 1 1 1 1 1 2 2 0 0 0 1 1 1
4 4 4 4 4 4 5 6 6 7 7 7 7 7 7 7 7 6 6 5 4 2 2 1 1 2 2 2 1 1 0 1 1 1 1 2 2 1 0 1 1 1 1
5 4 4 4 4 4 5 5 6 6 6 7 7 7 7 6 6 6 4 4 3 3 2 2 2 2 3 2 1 1 1 1 1 1 1 1 1 0 0 1 1 1 1
5 5 4 4 5 5 5 5 6 6 6 7 7 7 6 6 5 5 4 4 2 2 3 3 3 3 2 2 2 1 2 2 1 0 1 1 1 0 1 1 1 1 1
5 4 4 4 5 5 5 5 5 6 6 7 6 6 5 5 5 4 4 4 3 3 3 3 2 2 2 2 1 1 2 1 0 0 1 1 1 1 1 1 1 1 1
5 4 3 4 4 5 6 6 5 6 6 6 6 5 4 4 3 3 3 3 3 2 2 2 3 1 1 2 1 1 2 1 1 1 2 1 1 1 1 1 1 2 2
6 5 4 3 4 5 6 5 6 6 6 6 6 5 4 3 3 2 2 4 3 2 2 2 3 3 3 2 2 2 3 3 1 1 2 2 2 2 1 1 2 2 2
7 6 5 3 3 4 5 5 6 6 6 6 5 4 3 3 2 2 3 4 2 2 2 2 2 2 2 2 3 3 3 2 2 2 2 2 2 2 2 2 2 3 3
7 6 5 4 4 4 5 5 5 5 5 5 4 4 4 3 2 2 3 4 3 3 1 2 3 2 2 2 3 4 3 2 2 2 3 3 3 3 2 3 3 4 4
7 7 7 6 5 5 5 5 5 4 4 4 3 3 3 3 2 1 2 3 3 2 1 2 3 3 2 3 3 4 3 3 3 3 4 4 4 3 4 4 4 5 5
8 8 8 8 7 7 6 5 4 4 4 3 3 3 3 3 2 2 2 2 1 2 2 2 2 2 2 2 3 4 3 3 4 4 4 4 4 4 5 5 5 6 5
8 7 7 7 7 7 6 5 4 4 3 3 3 3 3 3 3 2 1 1 0 0 1 2 2 2 2 2 3 4 4 4 4 5 5 5 5 5 6 6 6 7 6
8 8 8 7 7 7 6 6 5 4 4 3 3 2 2 2 2 1 1 0 1 1 1 1 2 2 3 3 2 3 4 3 4 5 4 4 5 6 6 7 8 8 7
9 9 9 8 8 7 7 6 6 5 4 4 4 3 2 2 1 1 1 1 2 2 2 2 2 2 3 3 3 3 3 4 3 4 4 4 5 6 7 7 8 9 8
9 9 9 8 8 8 7 7 6 5 5 4 4 3 3 2 1 0 1 2 2 2 2 2 3 3 2 3 3 3 3 4 4 4 5 5 5 6 7 8 8 8 8
7 8 8 8 8 8 7 7 7 6 5 5 4 3 3 2 2 1 1 1 2 2 2 3 3 3 3 3 3 3 4 4 5 5 6 6 6 7 8 8 8 8 8
6 7 7 7 8 7 7 7 6 6 6 5 4 4 3 3 2 2 1 1 1 2 3 3 3 3 3 3 4 4 5 6 6 6 7 7 8 8 9 9 8 8 8
6 6 6 6 6 6 6 6 6 6 6 5 5 4 3 3 2 2 2 2 2 2 3 3 4 3 3 4 5 6 6 7 7 7 8 8 8 9 9 9 8 7 7
5 5 5 5 5 5 6 6 6 6 6 5 5 5 4 4 3 3 3 3 3 3 4 4 4 4 5 5 6 7 7 8 8 9 9 9 9 9 10 10 9 9 9
4 4 4 4 4 4 4 5 5 5 6 6 6 5 5 5 5 4 4 4 4 4 5 5 5 5 6 6 7 7 8 9 10 10 10 11 10 10 11 11 11 11 11
3 3 3 3 3 3 3 4 5 5 5 6 6 6 6 6 6 5 5 5 5 5 5 5 5 6 7 8 8 8 9 9 10 11 11 12 12 12 12 12 12 12 11
3 3 2 3 3 3 4 5 5 5 5 6 6 6 6 6 6 5 5 6 6 6 6 6 6 7 8 9 9 10 10 10 11 12 12 13 13 13 13 13 13 13 13
3 3 3 4 4 4 4 5 5 5 6 6 6 6 7 7 7 6 6 6 6 6 7 7 8 8 9 9 10 11 11 11 12 13 14 14 14 14 14 14 14 14 14
4 4 4 4 5 5 5 5 6 6 6 7 7 7 7 7 8 8 7 7 8 8 8 9 10 10 10 11 11 11 11 12 13 13 14 15 15 16 16 15 15 15 15
5 5 5 6 6 6 6 6 6 7 7 8 9 8 8 8 8 9 9 9 9 9 10 10 11 11 11 11 11 11 12 13 14 14 14 15 15 16 16 17 17 17 16
Wind_Direction
107 113 119 124 122 125 134 127 125 125 125 125 132 140 144 147 145 144 142 144 139 135 134 119 122 159 176 172 183 192 285 127 164 178 148 74 78 135 126 241 266 276 255
108 111 120 134 137 139 144 135 136 137 137 134 134 142 147 147 147 146 150 148 144 146 135 128 141 181 198 197 185 148 312 219 150 144 52 40 44 73 51 70 12 343 286
106 111 115 139 149 146 145 141 140 141 140 138 134 140 146 148 153 154 152 156 158 161 164 181 166 191 208 191 176 172 237 193 105 86 32 16 32 50 59 75 18 337 321
100 106 110 122 131 137 140 142 137 135 137 139 139 140 146 152 157 160 158 169 168 180 191 191 187 208 200 188 207 214 188 164 135 48 14 11 8 49 26 357 336 308 334
94 100 110 116 126 136 143 146 142 139 138 140 142 142 145 147 152 165 173 177 189 199 199 191 196 200 213 219 219 209 187 193 208 336 354 28 1 333 332 351 326 296 296
84 84 94 110 130 143 141 145 141 139 142 139 140 142 143 148 160 168 167 172 185 195 186 178 167 191 223 237 233 191 155 182 158 252 291 324 302 267 306 354 5 310 298
80 86 83 116 131 144 149 143 136 135 142 144 141 141 139 141 142 150 166 171 190 196 188 179 174 179 163 205 185 169 180 206 253 238 260 260 286 288 315 321 326 309 280
75 77 87 122 135 141 142 143 143 144 141 146 147 146 140 144 148 152 164 167 177 185 161 158 180 196 177 191 218 218 211 237 243 249 275 259 264 265 260 274 298 295 281
77 79 90 107 124 133 137 143 150 147 143 146 150 152 153 165 174 168 169 175 174 175 142 160 188 194 203 222 234 232 224 235 249 267 271 271 274 268 256 262 292 301 300
75 71 71 81 111 124 130 137 147 140 135 141 140 149 166 179 192 195 193 202 199 193 187 197 213 209 221 230 232 231 227 237 251 271 276 283 290 283 268 270 282 295 291
71 68 70 80 101 119 127 136 131 134 131 138 144 152 170 183 189 184 182 195 194 194 206 212 218 224 230 232 233 229 233 249 255 267 280 284 285 284 277 277 278 286 286
70 69 73 81 95 108 114 121 126 131 132 137 148 165 167 175 179 174 173 181 196 234 231 226 220 233 239 243 239 238 245 252 250 266 275 274 281 283 282 279 282 282 284
67 69 73 80 91 101 105 106 112 120 125 127 123 145 157 160 160 167 193 214 306 297 274 255 252 257 270 263 252 243 250 265 264 274 281 273 275 282 285 280 281 278 276
64 69 73 81 85 91 96 94 93 91 97 100 105 123 137 146 153 168 212 256 267 279 273 262 271 269 284 296 292 270 273 279 277 279 283 283 281 283 288 285 282 281 272
61 65 71 78 81 83 82 82 84 85 90 87 85 95 105 113 141 174 235 259 269 261 261 277 268 274 279 293 287 280 279 284 289 286 291 293 294 289 290 290 281 279 271
59 58 65 73 76 79 79 76 75 78 83 84 83 83 88 84 80 28 274 287 280 266 269 269 275 278 282 291 293 298 297 285 289 295 294 295 294 295 296 295 288 276 274
57 58 60 65 70 73 75 75 71 74 79 73 73 68 65 60 52 5 320 313 303 282 277 277 280 281 287 297 295 297 293 291 291 293 293 295 294 293 296 296 290 283 278
56 58 59 61 64 66 68 67 68 72 72 70 64 54 43 36 27 9 342 340 316 289 279 281 277 282 286 297 301 306 304 302 302 294 291 292 294 295 299 300 294 294 288
55 60 63 61 60 63 64 61 61 62 61 58 49 39 28 16 13 10 355 347 327 311 301 300 294 297 296 296 295 297 301 299 296 294 292 294 294 294 298 300 294 296 292
49 57 59 55 55 55 52 49 48 45 44 40 31 20 13 5 348 336 336 331 321 313 307 302 297 297 297 302 300 296 298 298 297 297 295 295 295 296 297 296 295 294 293
35 41 44 41 40 37 29 25 26 24 20 16 14 10 2 354 347 336 329 325 316 309 306 301 294 293 295 300 299 298 298 299 299 298 297 296 294 293 293 291 292 291 290
13 14 14 9 2 357 357 357 358 1 360 0 3 358 351 346 345 344 334 325 314 306 303 304 298 293 296 297 296 296 294 295 299 299 296 294 295 294 293 290 289 289 288
334 344 353 346 336 328 328 329 332 336 338 341 344 341 343 345 343 338 332 325 320 311 302 302 299 296 296 296 295 294 293 296 297 296 295 295 294 295 294 292 290 288 288
318 321 330 335 330 320 320 320 318 319 322 324 327 333 338 340 337 330 324 322 321 316 306 298 295 296 295 298 296 294 295 297 296 295 295 295 293 292 291 290 288 288 288
310 303 309 323 326 323 323 319 320 321 322 325 325 327 329 329 326 320 314 312 310 309 305 300 298 295 295 296 297 297 297 298 297 296 296 296 294 290 288 288 287 286 285
308 305 307 316 319 315 315 315 315 317 316 317 316 315 316 316 316 315 312 308 305 304 303 301 303 300 297 296 298 301 302 301 300 299 299 298 296 292 288 286 285 285 284
Height
5890 5889 5889 5889 5888 5888 5888 5887 5887 5886 5885 5884 5885 5886 5888 5890 5891 5892 5893 5893 5894 5894 5895 5895 5895 5895 5895 5895 5896 5896 5896 5896 5896 5897 5897 5897 5897 5897 5897 5897 5896 5896 5896
5890 5889 5889 5889 5889 5888 5888 5888 5888 5887 5887 5887 5887 5888 5889 5891 5891 5892 5893 5893 5894 5894 5895 5895 5895 5895 5895 5895 5896 5896 5896 5896 5896 5896 5897 5897 5897 5897 5897 5897 5896 5896 5896
5890 5889 5889 5889 5889 5888 5888 5888 5889 5888 5888 5888 5889 5889 5890 5891 5892 5892 5893 5893 5894 5894 5895 5895 5895 5895 5895 5896 5896 5896 5896 5896 5896 5896 5897 5897 5897 5897 5897 5896 5896 5896 5896
5890 5890 5889 5889 5889 5888 5889 5889 5889 5889 5889 5890 5890 5890 5891 5892 5892 5893 5893 5893 5893 5894 5894 5895 5895 5895 5896 5896 5896 5896 5896 5896 5896 5897 5897 5897 5897 5896 5896 5896 5896 5896 5896
5891 5890 5889 5889 5889 5889 5889 5890 5890 5890 5890 5890 5891 5892 5892 5893 5893 5893 5893 5894 5894 5893 5894 5894 5895 5895 5896 5896 5896 5896 5896 5897 5897 5897 5897 5896 5896 5896 5896 5896 5895 5895 5895
5891 5891 5890 5890 5890 5890 5890 5890 5890 5891 5891 5891 5892 5893 5893 5893 5894 5894 5894 5894 5894 5894 5894 5894 5895 5895 5895 5895 5896 5896 5896 5897 5897 5897 5897 5896 5896 5896 5896 5896 5895 5895 5895
5892 5891 5890 5890 5890 5890 5890 5890 5891 5891 5892 5892 5893 5893 5894 5894 5894 5894 5894 5894 5894 5894 5895 5895 5895 5896 5895 5895 5896 5897 5897 5897 5897 5897 5897 5896 5896 5896 5896 5896 5896 5895 5895
5893 5892 5890 5890 5890 5891 5891 5891 5892 5892 5893 5893 5894 5894 5894 5894 5895 5895 5894 5895 5895 5895 5895 5895 5896 5896 5896 5896 5896 5896 5897 5897 5897 5897 5897 5896 5896 5896 5896 5896 5895 5895 5895
5893 5892 5891 5890 5890 5891 5891 5892 5892 5893 5893 5894 5894 5894 5894 5895 5895 5895 5895 5895 5895 5895 5895 5896 5896 5896 5896 5896 5896 5896 5896 5896 5897 5896 5896 5896 5896 5896 5896 5895 5895 5895 5894
5894 5893 5892 5890 5890 5891 5892 5892 5893 5894 5894 5894 5895 5895 5895 5895 5895 5895 5895 5896 5896 5896 5896 5896 5896 5896 5896 5896 5896 5896 5896 5896 5896 5896 5896 5896 5896 5896 5895 5895 5895 5894 5894
5895 5894 5892 5891 5890 5891 5892 5893 5894 5894 5895 5895 5895 5895 5895 5895 5895 5895 5895 5895 5896 5896 5896 5896 5896 5896 5896 5896 5896 5896 5896 5896 5896 5896 5896 5895 5895 5895 5894 5894 5894 5893 5893
5897 5896 5894 5893 5892 5893 5894 5894 5895 5895 5895 5895 5895 5895 5895 5895 5896 5896 5896 5896 5896 5896 5896 5896 5896 5895 5895 5896 5895 5895 5895 5895 5895 5895 5895 5894 5894 5894 5893 5893 5893 5892 5892
5899 5898 5897 5896 5895 5895 5896 5896 5896 5896 5896 5896 5896 5896 5896 5896 5896 5896 5897 5897 5896 5896 5896 5895 5895 5895 5895 5895 5895 5894 5894 5894 5894 5894 5894 5893 5893 5893 5892 5892 5891 5891 5890
5901 5900 5899 5898 5897 5897 5897 5897 5897 5897 5897 5897 5897 5897 5897 5896 5897 5897 5897 5897 5897 5896 5896 5895 5895 5895 5895 5895 5894 5894 5894 5894 5893 5893 5893 5892 5892 5892 5891 5890 5889 5889 5889
5903 5902 5901 5900 5900 5899 5899 5899 5899 5899 5898 5898 5898 5897 5897 5898 5897 5897 5897 5897 5896 5896 5896 5895 5895 5895 5895 5894 5894 5893 5893 5893 5893 5892 5892 5891 5891 5890 5890 5888 5888 5887 5887
5905 5904 5903 5902 5902 5902 5901 5901 5900 5900 5899 5899 5899 5898 5898 5898 5898 5897 5897 5897 5896 5896 5896 5895 5895 5895 5895 5894 5894 5893 5893 5892 5892 5892 5891 5890 5890 5889 5888 5887 5886 5885 5885
5908 5907 5906 5905 5904 5903 5903 5902 5902 5901 5900 5900 5900 5899 5899 5898 5898 5897 5897 5896 5896 5896 5895 5895 5895 5894 5894 5894 5893 5893 5892 5892 5891 5891 5890 5889 5888 5888 5887 5886 5884 5883 5883
5909 5909 5908 5907 5906 5905 5904 5904 5903 5902 5901 5901 5900 5900 5899 5898 5898 5897 5897 5896 5896 5895 5895 5895 5894 5894 5893 5893 5892 5892 5891 5891 5890 5889 5889 5888 5887 5886 5885 5884 5883 5882 5881
5911 5910 5909 5908 5908 5907 5906 5905 5904 5903 5903 5902 5901 5900 5899 5898 5898 5897 5897 5896 5896 5895 5894 5894 5894 5893 5893 5892 5892 5891 5890 5890 5889 5888 5887 5887 5886 5885 5883 5882 5881 5880 5880
5912 5911 5910 5910 5909 5908 5907 5906 5906 5905 5904 5903 5902 5900 5899 5898 5897 5897 5896 5896 5895 5894 5894 5893 5893 5892 5892 5891 5891 5890 5889 5888 5887 5886 5886 5885 5884 5883 5882 5881 5880 5879 5878
5913 5912 5911 5911 5910 5909 5908 5907 5906 5905 5904 5903 5902 5901 5899 5898 5897 5896 5895 5895 5894 5894 5893 5892 5892 5891 5891 5890 5889 5889 5887 5886 5885 5885 5884 5883 5882 5881 5880 5878 5878 5877 5876
5914 5913 5912 5911 5910 5909 5909 5908 5907 5906 5904 5903 5902 5901 5899 5898 5897 5896 5895 5894 5893 5893 5892 5891 5890 5890 5889 5888 5887 5887 5886 5885 5884 5882 5881 5880 5879 5878 5877 5876 5875 5874 5873
5914 5913 5912 5911 5910 5909 5908 5908 5907 5905 5904 5903 5902 5900 5899 5898 5896 5895 5894 5893 5892 5892 5891 5890 5889 5888 5887 5886 5885 5884 5884 5883 5882 5880 5879 5877 5876 5875 5875 5874 5872 5871 5870
5913 5912 5912 5911 5910 5909 5908 5907 5906 5905 5904 5902 5901 5900 5898 5897 5896 5895 5894 5892 5891 5890 5889 5888 5888 5886 5885 5884 5883 5882 5881 5880 5879 5878 5876 5874 5873 5872 5871 5870 5869 5868 5867
5913 5912 5911 5910 5909 5908 5907 5906 5905 5904 5903 5901 5900 5898 5897 5896 5894 5893 5892 5891 5890 5889 5888 5887 5886 5884 5883 5882 5881 5880 5878 5877 5875 5874 5873 5871 5870 5869 5868 5867 5866 5865 5864
5912 5911 5910 5909 5908 5907 5906 5905 5904 5903 5901 5900 5899 5898 5896 5895 5893 5892 5891 5889 5888 5887 5886 5884 5883 5882 5880 5879 5878 5877 5875 5874 5872 5871 5869 5868 5866 5865 5864 5863 5862 5861 5860